This is the latest recevied weather packets stored in our database for station/object N3MFL. If no packets are shown the sender has not sent any weather packets the latest 10 day(s).
| Time | Temp. | Humidity | Pressure | Rain* | Wind** | Luminosity | Snow |
|---|---|---|---|---|---|---|---|
| 1777471776 | 10.56° C | 79% | 1017.9 hPa | 0 mm | - | 196 W/m² | - |
| 1777471169 | 10° C | 81% | 1018.2 hPa | 0 mm | - | 182 W/m² | - |
| 1777469651 | 9.44° C | 84% | 1018.2 hPa | 0 mm | - | 104 W/m² | - |
| 1777469347 | 9.44° C | 84% | 1018.1 hPa | 0 mm | - | 114 W/m² | - |
| 1777469042 | 8.89° C | 85% | 1018.2 hPa | 0 mm | - | 120 W/m² | - |
| 1777468738 | 8.89° C | 84% | 1018.1 hPa | 0 mm | - | 108 W/m² | - |
| 1777468434 | 8.89° C | 85% | 1018.2 hPa | 0 mm | - | 114 W/m² | - |
| 1777468129 | 8.89° C | 85% | 1018.5 hPa | 0 mm | - | 104 W/m² | - |
| 1777467827 | 8.89° C | 85% | 1018.8 hPa | 0 mm | - | 88 W/m² | - |
| 1777467522 | 8.89° C | 84% | 1018.7 hPa | 0 mm | - | 85 W/m² | - |
| 1777466309 | 8.33° C | 85% | 1018.6 hPa | 0 mm | - | 84 W/m² | - |
| 1777466005 | 8.33° C | 85% | 1018.9 hPa | 0 mm | - | 88 W/m² | - |
| 1777465701 | 8.33° C | 85% | 1018.7 hPa | 0 mm | - | 86 W/m² | - |
| 1777465397 | 8.89° C | 85% | 1018.7 hPa | 0 mm | - | 86 W/m² | - |
| 1777465095 | 8.33° C | 86% | 1018.6 hPa | 0 mm | - | 82 W/m² | - |
| 1777464791 | 8.33° C | 86% | 1018.7 hPa | 0 mm | - | 77 W/m² | - |
| 1777464487 | 8.33° C | 86% | 1018.6 hPa | 0 mm | - | 68 W/m² | - |
| 1777463579 | 8.33° C | 86% | 1018.7 hPa | 0 mm | - | 70 W/m² | - |
| 1777463274 | 8.33° C | 86% | 1018.5 hPa | 0 mm | - | 68 W/m² | - |
| 1777462971 | 8.33° C | 86% | 1018.5 hPa | 0 mm | - | 67 W/m² | - |
| 1777462666 | 8.33° C | 86% | 1018.6 hPa | 0 mm | - | 58 W/m² | - |
| 1777462362 | 8.33° C | 85% | 1018.5 hPa | 0 mm | - | 55 W/m² | - |
| 1777462058 | 8.33° C | 85% | 1018.7 hPa | 0 mm | - | 53 W/m² | - |
| 1777461756 | 8.33° C | 85% | 1018.6 hPa | 0 mm | - | 54 W/m² | - |
| 1777461450 | 8.33° C | 85% | 1018.5 hPa | 0 mm | - | 53 W/m² | - |
* Rain latest hour (hover to see other rain measurements)
** Current wind speed in m/s (hover to see current wind gust speed)